UR5RFF-13 Weather Reports


time (UTC)temp
C
wind
direction
speed
KPH
gust
KPH
rain 1hr
cm
rain 24hr
cm
rain mn
cm
humidity
%
barometer
mb
20260504020546 6 0.0 0.0 0.00 0.00 0.00 78 1016.9
20260504015532 7 0.0 1.6 0.00 0.00 0.00 78 1016.8
20260504014521 7 45 0.0 3.2 0.00 0.00 0.00 78 1016.9
20260504013609 7 45 0.0 3.2 0.00 0.00 0.00 77 1016.9
20260504012555 7 45 0.0 1.6 0.00 0.00 0.00 74 1017.0
20260504011544 7 45 0.0 3.2 0.00 0.00 0.00 76 1017.1
20260504010528 7 0.0 0.0 0.00 0.00 0.00 75 1016.9
20260504005614 7 0.0 0.0 0.00 0.00 0.00 70 1016.9
20260504004603 7 45 0.0 3.2 0.00 0.00 0.00 70 1017.0
20260504003552 8 45 0.0 3.2 0.00 0.00 0.00 69 1016.9
20260504002538 8 0.0 0.0 0.00 0.00 0.00 67 1016.9
20260504001526 8 45 1.6 4.8 0.00 0.00 0.00 66 1017.1
20260504000612 9 180 1.6 3.2 0.00 0.00 0.00 65 1016.9
20260503235558 10 180 0.0 3.2 0.00 0.00 0.00 64 1017.1
20260503234545 10 0.0 0.0 0.00 0.00 0.00 63 1016.9
20260503233534 10 180 0.0 3.2 0.00 0.00 0.00 62 1016.9
20260503232519 11 180 1.6 3.2 0.00 0.00 0.00 61 1016.9
20260503231608 11 180 1.6 3.2 0.00 0.00 0.00 61 1017.2
20260503230554 11 180 0.0 3.2 0.00 0.00 0.00 61 1017.0
20260503225540 11 180 0.0 3.2 0.00 0.00 0.00 60 1017.1
20260503224528 11 195 3.2 4.8 0.00 0.00 0.00 60 1017.2
20260503223614 12 206 3.2 4.8 0.00 0.00 0.00 60 1017.1
20260503222600 12 225 3.2 4.8 0.00 0.00 0.00 60 1017.2
20260503221548 11 159 3.2 4.8 0.00 0.00 0.00 61 1017.1
20260503220534 11 135 1.6 3.2 0.00 0.00 0.00 60 1017.1
20260503215520 11 90 0.0 3.2 0.00 0.00 0.00 60 1017.1
20260503214609 11 90 1.6 3.2 0.00 0.00 0.00 60 1017.2
20260503213558 11 90 3.2 4.8 0.00 0.00 0.00 59 1017.0
20260503212544 11 90 3.2 3.2 0.00 0.00 0.00 58 1017.1
20260503211532 12 90 3.2 4.8 0.00 0.00 0.00 57 1017.1
20260503210619 12 90 1.6 3.2 0.00 0.00 0.00 56 1017.1
20260503205604 12 90 1.6 3.2 0.00 0.00 0.00 53 1017.1
20260503204553 12 90 1.6 4.8 0.00 0.00 0.00 52 1017.1
20260503203538 12 90 1.6 3.2 0.00 0.00 0.00 54 1017.0
20260503202524 12 166 3.2 6.4 0.00 0.00 0.00 54 1016.9
20260503201613 12 0.0 1.6 0.00 0.00 0.00 52 1016.9
20260503200558 12 0.0 0.0 0.00 0.00 0.00 50 1017.0
20260503195544 12 0.0 0.0 0.00 0.00 0.00 50 1016.9
20260503194532 12 225 1.6 3.2 0.00 0.00 0.00 50 1017.0
20260503193617 12 0.0 0.0 0.00 0.00 0.00 51 1017.0
20260503192602 12 0.0 0.0 0.00 0.00 0.00 50 1016.9
20260503191548 13 0.0 0.0 0.00 0.00 0.00 50 1017.0
20260503190532 13 293 1.6 3.2 0.00 0.00 0.00 48 1016.9
20260503185619 13 0.0 0.0 0.00 0.00 0.00 44 1016.8
20260503184607 14 0 1.6 3.2 0.00 0.00 0.00 44 1016.8
20260503183553 15 0.0 0.0 0.00 0.00 0.00 43 1016.7
20260503182539 15 0.0 0.0 0.00 0.00 0.00 42 1016.7
20260503181527 15 0.0 0.0 0.00 0.00 0.00 41 1016.8
20260503180613 16 0 1.6 3.2 0.00 0.00 0.00 41 1016.5
20260503175558 17 0 0.0 3.2 0.00 0.00 0.00 40 1016.7
20260503174546 17 0 0.0 1.6 0.00 0.00 0.00 35 1016.6
20260503173532 18 0 0.0 1.6 0.00 0.00 0.00 33 1016.4
20260503172618 19 0 0.0 3.2 0.00 0.00 0.00 32 1016.3
20260503171606 20 0 0.0 3.2 0.00 0.00 0.00 30 1016.4
20260503170551 21 0 1.6 3.2 0.00 0.00 0.00 28 1016.3
20260503150614 24 317 12.9 17.7 0.00 0.00 0.00 20 1016.6
20260503130532 24 320 8.0 12.9 0.00 0.00 0.00 21 1017.4
20260503110555 22 204 11.3 16.1 0.00 0.00 0.00 28 1018.7
20260503081608 17 198 12.9 17.7 0.00 0.00 0.00 39 1020.0
20260503080554 16 173 16.1 24.1 0.00 0.00 0.00 41 1020.2
20260503072559 15 236 12.9 19.3 0.00 0.00 0.00 41 1020.3
20260503071548 15 177 11.3 17.7 0.00 0.00 0.00 42 1020.3
20260503070533 15 187 12.9 20.9 0.00 0.00 0.00 42 1020.3
20260503054551 13 217 16.1 22.5 0.00 0.00 0.00 42 1020.4
20260503053539 13 230 11.3 17.7 0.00 0.00 0.00 43 1020.6
20260503052526 13 205 9.7 16.1 0.00 0.00 0.00 44 1020.6
20260503051614 12 207 14.5 19.3 0.00 0.00 0.00 44 1020.8
20260503050559 12 215 11.3 16.1 0.00 0.00 0.00 46 1020.7
20260503045544 12 186 12.9 19.3 0.00 0.00 0.00 49 1020.7
20260503044532 11 202 14.5 17.7 0.00 0.00 0.00 50 1020.8
20260503043618 11 193 11.3 16.1 0.00 0.00 0.00 50 1020.9
20260503042603 11 186 14.5 19.3 0.00 0.00 0.00 50 1020.9
20260503041551 11 200 9.7 17.7 0.00 0.00 0.00 51 1021.0
20260503040537 10 205 9.7 16.1 0.00 0.00 0.00 51 1021.0
20260503035523 10 193 12.9 17.7 0.00 0.00 0.00 52 1021.0
20260503034612 9 195 9.7 14.5 0.00 0.00 0.00 53 1021.1
20260503033557 9 189 8.0 12.9 0.00 0.00 0.00 54 1021.2
20260503032543 8 225 4.8 9.7 0.00 0.00 0.00 56 1021.0
20260503031531 8 191 9.7 14.5 0.00 0.00 0.00 59 1021.2
20260503030618 7 187 8.0 14.5 0.00 0.00 0.00 60 1021.2
20260503025603 7 192 8.0 12.9 0.00 0.00 0.00 60 1021.3
20260503024552 7 180 8.0 12.9 0.00 0.00 0.00 64 1021.4
20260503023537 7 212 8.0 9.7 0.00 0.00 0.00 63 1021.4
20260503022523 7 205 6.4 9.7 0.00 0.00 0.00 61 1021.6
20260503021611 7 195 6.4 9.7 0.00 0.00 0.00 60 1021.6